[[{"header":{"parameterUnit":"m.s-1","parameterCategory":1,"la1":30.2991,"la2":30.254,"lo1":-89.0895,"lo2":-89.0444,"dy":0.0017,"dx":0.0017,"nx":28,"ny":28,"refTime":"2025-07-12T09:00:00:Z","depth":0,"parameterNumber":2,"parameterNumberName":"U-component_of_WINDS"},"data":[0,0,0,0,0,0,0,0,0,0,0,0,0,0,0,0,0,0,0,0,0,0,0,0,0,0,0,0,0,0,0,0,0,0,0,0,0,0,0,0,0,0,0,0,0,0,0,0,0,0,0,0,0,0,0,0,0,0,-0.1886,-0.1886,0,-0.182,-0.1819,-0.1819,-0.1774,-0.1773,-0.1773,-0.1773,-0.1706,-0.1705,-0.1703,0,0,0,0,0,0,0,0,0,0,0,0,0,-0.1976,-0.1975,-0.1886,-0.1886,-0.1885,-0.182,-0.1819,-0.1818,-0.1774,-0.1773,-0.1773,-0.1773,-0.1707,-0.1705,-0.1703,0,0,0,0,0,0,0,0,0,0,0,0,0,-0.1927,-0.1975,-0.1887,-0.1855,-0.1851,-0.182,-0.1819,-0.1818,-0.1774,-0.1773,-0.1773,-0.1772,-0.1707,-0.1705,-0.1703,-0.1699,0,0,-0.1696,-0.1695,0,0,0,0,0,0,0,0,-0.1929,-0.1923,-0.186,-0.1857,-0.1853,-0.1805,-0.1826,-0.1778,-0.1774,-0.1803,-0.1773,-0.1772,-0.1739,-0.1734,-0.1723,-0.1696,-0.1693,-0.1696,-0.1694,-0.1694,-0.1693,0,0,0,0,0,0,0,-0.1933,-0.1926,-0.186,-0.1859,-0.1855,-0.1844,-0.1837,-0.1817,-0.1775,-0.1801,-0.1797,-0.179,-0.1737,-0.1725,-0.1721,-0.1692,-0.1696,-0.1694,-0.1693,-0.1692,-0.1659,-0.1659,0,0,0,0,0,0,-0.1941,-0.1929,-0.1862,-0.1858,-0.1891,-0.1843,-0.1835,-0.1821,-0.1775,-0.1767,-0.179,-0.1788,-0.1729,-0.1724,-0.1719,-0.1712,-0.1694,-0.1691,-0.169,-0.1658,-0.1659,-0.1659,0,0,0,0,0,0,-0.1943,-0.1936,-0.1865,-0.1893,-0.1883,-0.1842,-0.1827,-0.182,-0.1808,-0.1767,-0.176,-0.1786,-0.1729,-0.1722,-0.1704,-0.1709,-0.169,-0.1688,-0.1658,-0.1658,-0.1659,-0.1697,0,0,0,0,0,0,-0.1946,-0.1937,-0.1934,-0.1893,-0.1882,-0.1851,-0.1827,-0.1819,-0.1804,-0.18,-0.1761,-0.1754,-0.1728,-0.1708,-0.1702,-0.1705,-0.1687,-0.1657,-0.1658,-0.1659,-0.1695,-0.1699,-0.1702,0,0,0,0,0,-0.1949,-0.1948,-0.1934,-0.1927,-0.1878,-0.1852,-0.1845,-0.1815,-0.1804,-0.1802,-0.1776,-0.1755,-0.1709,-0.1706,-0.1699,-0.1702,-0.1657,-0.1658,-0.1659,-0.1694,-0.1698,-0.1702,0,0,0,0,0,0,-0.1991,-0.1942,-0.1926,-0.1911,-0.1886,-0.1844,-0.184,-0.182,-0.1798,-0.1795,-0.1759,-0.1751,-0.1737,-0.1718,-0.1715,-0.1696,-0.168,-0.168,-0.1709,-0.1713,-0.1717,-0.1722,-0.1685,0,0,0,0,0,-0.1998,-0.1981,-0.1939,-0.1929,-0.1917,-0.1881,-0.1869,-0.1847,-0.182,-0.1809,-0.1782,-0.1757,-0.1736,-0.1724,-0.1703,-0.1692,-0.1684,-0.1691,-0.1694,-0.1697,-0.1698,-0.1692,-0.1695,-0.1663,-0.1663,-0.1663,0,0,-0.2013,-0.1984,-0.1975,-0.1937,-0.1915,-0.1898,-0.1872,-0.1856,-0.1843,-0.1807,-0.1788,-0.1768,-0.1737,-0.1723,-0.1716,-0.1707,-0.1705,-0.1699,-0.1701,-0.17,-0.1693,-0.1696,-0.1699,-0.1663,-0.1663,-0.1663,0,0,-0.2032,-0.2008,-0.1998,-0.1977,-0.1943,-0.1919,-0.1917,-0.1878,-0.1863,-0.1844,-0.1817,-0.1802,-0.1767,-0.1747,-0.1732,-0.1744,-0.1724,-0.1738,-0.1756,-0.1751,-0.1753,-0.1755,-0.176,-0.1763,-0.1739,-0.1739,-0.1739,0,-0.2056,-0.2029,-0.1996,-0.198,-0.1965,-0.1931,-0.1921,-0.1902,-0.1864,-0.1854,-0.1844,-0.1801,-0.1778,-0.1759,-0.1762,-0.1751,-0.1748,-0.1742,-0.1756,-0.1757,-0.1759,-0.1763,-0.1765,-0.1741,-0.174,-0.174,-0.174,0,-0.2059,-0.2041,-0.2037,-0.2001,-0.1985,-0.1972,-0.1938,-0.1926,-0.1906,-0.1884,-0.1865,-0.1836,-0.1809,-0.1803,-0.1784,-0.1782,-0.1778,-0.1762,-0.1746,-0.1764,-0.1768,-0.1769,-0.1743,-0.1743,-0.1742,-0.1742,0,0,-0.2102,-0.2048,-0.2047,-0.2031,-0.1992,-0.1978,-0.1964,-0.1938,-0.1928,-0.1903,-0.1892,-0.1864,-0.1849,-0.1833,-0.1811,-0.1806,-0.1818,-0.1791,-0.179,-0.1798,-0.1815,-0.1828,-0.183,-0.1805,-0.1805,-0.1805,-0.1818,0,-0.2116,-0.2089,-0.2059,-0.2043,-0.2027,-0.1995,-0.1983,-0.1958,-0.1937,-0.192,-0.1896,-0.1878,-0.186,-0.185,-0.1843,-0.1818,-0.1822,-0.1817,-0.1794,-0.1794,-0.1804,-0.1832,-0.1844,-0.1858,-0.1819,-0.182,-0.182,0,-0.2128,-0.2105,-0.2087,-0.205,-0.2042,-0.2032,-0.2006,-0.199,-0.1962,-0.1946,-0.1928,-0.1905,-0.189,-0.1875,-0.1854,-0.1852,-0.1841,-0.1827,-0.1827,-0.1824,-0.1808,-0.183,-0.1862,-0.1864,-0.1821,-0.1821,-0.1821,0,-0.2163,-0.2127,-0.2111,-0.2098,-0.2055,-0.2049,-0.203,-0.2001,-0.1988,-0.1965,-0.1955,-0.1931,-0.1918,-0.19,-0.1872,-0.1863,-0.1854,-0.1837,-0.1842,-0.1843,-0.1842,-0.1842,-0.1872,-0.1834,-0.1834,-0.1834,-0.1834,0,-0.2181,-0.2172,-0.2126,-0.2117,-0.2106,-0.2072,-0.2062,-0.2041,-0.2016,-0.2003,-0.1973,-0.1962,-0.1924,-0.1908,-0.1885,-0.1872,-0.1866,-0.1854,-0.1848,-0.1857,-0.1859,-0.185,-0.1848,-0.1834,-0.1834,-0.1834,-0.1834,0,-0.2218,-0.2187,-0.2168,-0.2129,-0.2119,-0.2112,-0.2079,-0.2069,-0.2046,-0.2029,-0.2024,-0.1988,-0.1967,-0.1937,-0.1907,-0.1892,-0.1883,-0.1873,-0.1892,-0.1889,-0.1896,-0.1896,-0.1922,-0.1924,-0.1884,-0.1884,-0.1885,0,-0.2232,-0.2224,-0.2184,-0.2172,-0.2155,-0.2137,-0.2123,-0.209,-0.2076,-0.2044,-0.2038,-0.2016,-0.1996,-0.1965,-0.1937,-0.1914,-0.1904,-0.1915,-0.1901,-0.191,-0.1905,-0.1906,-0.1906,-0.1918,-0.1919,-0.1919,-0.192,0,-0.2261,-0.2246,-0.2226,-0.2201,-0.2185,-0.2164,-0.2141,-0.2134,-0.2096,-0.2082,-0.2061,-0.2046,-0.2016,-0.1994,-0.1968,-0.195,-0.1929,-0.1924,-0.1924,-0.1934,-0.1946,-0.194,-0.1902,-0.1924,-0.1924,-0.1923,-0.1923,-0.1923,-0.2288,-0.2279,-0.225,-0.2229,-0.2208,-0.2188,-0.2177,-0.2152,-0.2134,-0.2107,-0.2088,-0.2068,-0.2041,-0.2004,-0.1987,-0.1971,-0.1962,-0.1962,-0.1962,-0.1963,-0.1966,-0.1948,-0.1966,-0.1966,-0.1966,-0.1966,-0.1965,0,-0.2316,-0.2295,-0.2276,-0.2245,-0.2229,-0.221,-0.2184,-0.2172,-0.2155,-0.2131,-0.2112,-0.2088,-0.2067,-0.2037,-0.2014,-0.2007,-0.1997,-0.2003,-0.2003,-0.1999,-0.1975,-0.1978,-0.2011,-0.2011,-0.2011,-0.2011,-0.2011,-0.2011,-0.2329,-0.2314,-0.2295,-0.227,-0.225,-0.223,-0.2217,-0.2198,-0.2179,-0.2153,-0.2135,-0.2116,-0.209,-0.2064,-0.2045,-0.2036,-0.203,-0.2038,-0.2027,-0.2005,-0.2001,-0.1997,-0.1999,-0.2037,-0.2037,-0.2052,-0.2053,-0.2053]},{"header":{"parameterUnit":"m.s-1","parameterCategory":1,"la1":30.2991,"la2":30.254,"lo1":-89.0895,"lo2":-89.0444,"dy":0.0017,"dx":0.0017,"nx":28,"ny":28,"refTime":"2025-07-12T09:00:00:Z","depth":0,"parameterNumber":3,"parameterNumberName":"V-component_of_WINDS"},"data":[0,0,0,0,0,0,0,0,0,0,0,0,0,0,0,0,0,0,0,0,0,0,0,0,0,0,0,0,0,0,0,0,0,0,0,0,0,0,0,0,0,0,0,0,0,0,0,0,0,0,0,0,0,0,0,0,0,0,4.1891,4.1891,0,4.1859,4.1858,4.1858,4.1805,4.1804,4.1803,4.1802,4.1769,4.1769,4.1769,0,0,0,0,0,0,0,0,0,0,0,0,0,4.1908,4.1908,4.1891,4.1891,4.1891,4.1859,4.1858,4.1858,4.1805,4.1804,4.1803,4.1802,4.1769,4.1769,4.1769,0,0,0,0,0,0,0,0,0,0,0,0,0,4.1891,4.1908,4.1891,4.1861,4.1857,4.1859,4.1858,4.1858,4.1806,4.1804,4.1803,4.1801,4.1769,4.1769,4.1769,4.1798,0,0,4.1769,4.1769,0,0,0,0,0,0,0,0,4.1892,4.189,4.1866,4.1863,4.1859,4.1835,4.1852,4.1838,4.1806,4.1825,4.1802,4.1801,4.1792,4.179,4.1787,4.1796,4.1795,4.1769,4.1769,4.1769,4.1769,0,0,0,0,0,0,0,4.1893,4.1891,4.1878,4.1865,4.1861,4.1848,4.1844,4.1849,4.1817,4.1824,4.182,4.1817,4.179,4.1787,4.1786,4.1794,4.1769,4.1769,4.1769,4.1769,4.1826,4.1828,0,0,0,0,0,0,4.1899,4.1893,4.1879,4.1877,4.1872,4.1849,4.1845,4.1844,4.1817,4.1811,4.1818,4.1814,4.1788,4.1786,4.1784,4.1817,4.1769,4.1769,4.1769,4.1825,4.1827,4.1828,0,0,0,0,0,0,4.19,4.1898,4.1881,4.1884,4.1881,4.1851,4.185,4.1844,4.1841,4.1813,4.1807,4.1821,4.1786,4.1784,4.1795,4.1815,4.1769,4.1769,4.1823,4.1825,4.1827,4.1882,0,0,0,0,0,0,4.19,4.1899,4.1909,4.1885,4.1881,4.1892,4.1851,4.1845,4.1841,4.1836,4.1814,4.1809,4.1785,4.1795,4.1795,4.1814,4.1769,4.1821,4.1824,4.1827,4.1878,4.1886,4.1892,0,0,0,0,0,4.1901,4.1926,4.191,4.1909,4.1894,4.1893,4.1891,4.1864,4.1843,4.1854,4.1835,4.1809,4.1813,4.1797,4.1796,4.1815,4.182,4.1823,4.1826,4.1875,4.1884,4.1892,0,0,0,0,0,0,4.1953,4.1922,4.1904,4.1922,4.1911,4.1884,4.1897,4.1874,4.1869,4.1864,4.183,4.1826,4.1841,4.1829,4.1812,4.1842,4.1812,4.1816,4.1849,4.1858,4.1865,4.1867,4.1769,0,0,0,0,0,4.1967,4.1969,4.1942,4.196,4.1955,4.1927,4.1926,4.1906,4.1893,4.1888,4.187,4.1859,4.1857,4.1857,4.1854,4.1876,4.1871,4.1889,4.1896,4.1902,4.1905,4.1917,4.1925,4.1839,4.1839,4.1839,0,0,4.1995,4.1978,4.1981,4.197,4.1959,4.1962,4.1923,4.1929,4.1931,4.1889,4.1898,4.1885,4.187,4.1886,4.1893,4.1877,4.1928,4.1907,4.1912,4.1911,4.1921,4.1929,4.1937,4.1842,4.1841,4.1841,0,0,4.2047,4.2035,4.2049,4.2039,4.2023,4.2004,4.2008,4.1985,4.1975,4.1984,4.1952,4.1955,4.1952,4.1943,4.1938,4.1989,4.1965,4.1989,4.2025,4.2037,4.2043,4.2049,4.2067,4.2074,4.1992,4.1992,4.1992,0,4.2084,4.2088,4.2059,4.2066,4.2062,4.2025,4.2039,4.203,4.2014,4.2013,4.1995,4.1992,4.1979,4.1994,4.2006,4.2004,4.2007,4.1991,4.2045,4.205,4.2055,4.2072,4.2079,4.1995,4.1995,4.1995,4.1994,0,4.2134,4.2137,4.215,4.2136,4.2134,4.2144,4.2117,4.2118,4.2099,4.2082,4.2092,4.2075,4.2069,4.2071,4.2051,4.2082,4.2073,4.2051,4.202,4.2067,4.2082,4.2089,4.2,4.1998,4.1998,4.1997,0,0,4.2217,4.2188,4.2193,4.2186,4.2167,4.2169,4.2178,4.2172,4.2173,4.2164,4.2171,4.2171,4.215,4.2145,4.2124,4.2135,4.2176,4.2111,4.211,4.2124,4.221,4.2226,4.2234,4.216,4.2161,4.2162,4.2211,0,4.2266,4.228,4.2254,4.2274,4.2277,4.2242,4.225,4.2239,4.2225,4.2225,4.2208,4.2209,4.2182,4.2178,4.2187,4.2169,4.2193,4.2165,4.2166,4.2167,4.2171,4.2242,4.226,4.2306,4.2217,4.2218,4.2218,0,4.2323,4.2317,4.2338,4.2318,4.2318,4.2326,4.2318,4.2319,4.2306,4.2295,4.2289,4.2265,4.2273,4.2244,4.2255,4.2237,4.2236,4.2228,4.2229,4.2227,4.2195,4.2243,4.232,4.2327,4.2227,4.2227,4.2226,0,4.2383,4.2379,4.2391,4.2387,4.2363,4.237,4.236,4.2346,4.2344,4.2338,4.2336,4.2331,4.2328,4.2325,4.23,4.2281,4.2314,4.2283,4.2305,4.2306,4.2313,4.2313,4.2391,4.2313,4.2313,4.2313,4.2313,0,4.2439,4.2453,4.2418,4.2425,4.244,4.2411,4.2426,4.2413,4.2401,4.2406,4.2375,4.238,4.2348,4.2349,4.2331,4.2342,4.2341,4.2332,4.2327,4.2335,4.2336,4.2333,4.2329,4.2315,4.2314,4.2314,4.2313,0,4.2507,4.2484,4.2495,4.2472,4.2467,4.2479,4.2459,4.2465,4.2449,4.2455,4.2455,4.2429,4.2429,4.2405,4.24,4.2387,4.2407,4.2396,4.2412,4.2408,4.2431,4.2429,4.2511,4.252,4.2436,4.2437,4.2438,0,4.2544,4.2554,4.2533,4.2534,4.2526,4.2528,4.2526,4.2498,4.2497,4.2484,4.2492,4.249,4.2486,4.2488,4.2469,4.2466,4.2454,4.2483,4.2453,4.2461,4.2454,4.2454,4.2455,4.2489,4.249,4.2491,4.2492,0,4.2613,4.2601,4.26,4.2595,4.2593,4.2588,4.258,4.2583,4.2553,4.2554,4.2554,4.2551,4.2547,4.2545,4.2538,4.2528,4.2505,4.2501,4.2506,4.2514,4.2523,4.2518,4.2428,4.2499,4.2499,4.2498,4.2498,4.2497,4.2666,4.2674,4.266,4.266,4.2651,4.2645,4.265,4.2635,4.2634,4.2628,4.2612,4.2615,4.2603,4.2591,4.2584,4.2586,4.2571,4.2578,4.258,4.2582,4.2587,4.2523,4.2584,4.2584,4.2584,4.2584,4.2583,0,4.2733,4.2723,4.2723,4.2714,4.2714,4.2692,4.2683,4.2685,4.2688,4.2678,4.2676,4.2676,4.2675,4.2656,4.2653,4.2658,4.2647,4.2658,4.2657,4.2655,4.26,4.2596,4.2667,4.2667,4.2667,4.2667,4.2667,4.2667,4.2768,4.278,4.2767,4.2774,4.2764,4.2767,4.2763,4.2758,4.275,4.2752,4.2751,4.2739,4.2726,4.2721,4.2719,4.2713,4.2714,4.2728,4.2719,4.2667,4.2659,4.2651,4.2648,4.2728,4.2728,4.2774,4.2775,4.2775]}]]